Weather reports worldwide

Advertisment
Linton-On-Ouse, United Kingdom (3266): temperature & dewpoint: 09.09.2019 09:00:00 - 15.09.2019 09:00:00 (BST)Linton-On-Ouse, United Kingdom (3266): temperature -20cm & temperature -100cm: 09.09.2019 09:00:00 - 15.09.2019 09:00:00 (BST)Linton-On-Ouse, United Kingdom (3266): wind speed & gusts: 09.09.2019 09:00:00 - 15.09.2019 09:00:00 (BST)Linton-On-Ouse, United Kingdom (3266): wind direction: 09.09.2019 09:00:00 - 15.09.2019 09:00:00 (BST)Linton-On-Ouse, United Kingdom (3266): reduced air pressure: 09.09.2019 09:00:00 - 15.09.2019 09:00:00 (BST)Linton-On-Ouse, United Kingdom (3266): visibility: 09.09.2019 09:00:00 - 15.09.2019 09:00:00 (BST)Linton-On-Ouse, United Kingdom (3266): precipitation: 09.09.2019 09:00:00 - 15.09.2019 09:00:00 (BST)
Date & Time tt [°C] td [°C] tt -20cm [°C] tt -100cm [°C] ff [km/h] ff [kn] fx [km/h] fx [kn] dd ppp [hPa] vv [km] rr [mm]
15.09.2019 09:00:00 17,0 13,0 - - 13 7 - - W - 10 0,0
15.09.2019 08:00:00 16,2 13,5 - - 11 6 - - W 1021,5 30 0,0
15.09.2019 07:00:00 15,7 13,1 - - 13 7 - - WSW 1021,2 10 0,0
15.09.2019 06:00:00 15,6 12,8 - - 21 11 - - W 1021,0 29 0,0
15.09.2019 05:00:00 15,2 12,5 - - 22 12 - - W 1021,4 10 0,0
15.09.2019 04:00:00 15,6 11,3 - - 28 15 - - W 1021,1 30 0,0
15.09.2019 03:00:00 15,2 9,2 - - 18 10 - - WSW 1021,8 30 0,0
15.09.2019 02:00:00 14,3 7,9 - - 22 12 - - WSW 1021,8 30 0,0
15.09.2019 01:00:00 15,3 7,4 - - 15 8 - - SSW 1022,7 10 0,0
15.09.2019 00:00:00 15,8 7,4 - - 21 11 - - SW 1023,6 10 0,0
14.09.2019 23:00:00 15,1 8,5 - - 24 13 - - WSW 1023,8 30 0,0
14.09.2019 22:00:00 16,5 8,5 - - 24 13 - - SW 1024,5 30 0,0
14.09.2019 21:00:00 16,9 8,6 - - 26 14 - - SW 1024,4 10 0,0
14.09.2019 20:00:00 16,7 9,6 - - 18 10 - - WSW 1025,4 28 0,0
14.09.2019 19:00:00 17,7 8,8 - - 5 3 - - S 1025,6 10 0,0
14.09.2019 18:00:00 18,9 8,1 - - 11 6 - - SW 1025,9 30 0,0
14.09.2019 17:00:00 20,1 8,8 - - 22 12 - - SW 1026,6 10 0,0
14.09.2019 16:00:00 20,1 8,2 - - 21 11 - - SW 1027,5 30 0,0
14.09.2019 15:00:00 19,4 8,5 - - 24 13 - - WSW 1028,6 10 0,0
14.09.2019 14:00:00 18,1 8,2 - - 21 11 - - SW 1029,8 10 0,0
14.09.2019 13:00:00 18,6 8,8 - - 24 13 - - SW 1030,3 10 0,0
14.09.2019 12:00:00 17,6 7,7 - - 26 14 - - SW 1031,0 30 0,0
14.09.2019 11:00:00 15,7 8,1 - - 21 11 - - SSW 1031,9 10 0,0
14.09.2019 10:00:00 12,2 8,0 14,4 14,7 9 5 - - S 1032,9 26 0,0
14.09.2019 09:00:00 8,6 7,3 - - 9 5 - - S 1033,4 10 0,0
14.09.2019 08:00:00 6,5 6,4 - - 4 2 - - S 1033,6 14 0,0
14.09.2019 07:00:00 5,6 5,4 - - 8 4 - - SE 1033,6 10 0,0
14.09.2019 06:00:00 5,5 5,3 - - 4 2 - - ESE 1034,0 10 0,0
14.09.2019 05:00:00 5,5 5,1 - - 2 1 - - SSE 1034,6 12 0,0
14.09.2019 04:00:00 5,3 4,4 - - 2 1 - - ENE 1035,3 10 0,0
14.09.2019 03:00:00 6,7 5,9 - - 4 2 - - E 1035,9 10 0,0
14.09.2019 02:00:00 7,8 7,1 - - 2 1 - - SW 1036,2 21 0,0
14.09.2019 01:00:00 7,6 6,0 - - 2 1 - - W 1036,4 20 0,0
14.09.2019 00:00:00 8,8 7,4 - - 4 2 - - SSW 1036,2 20 0,0
13.09.2019 23:00:00 9,0 5,6 - - 4 2 - - S 1036,5 22 0,0
13.09.2019 22:00:00 11,3 7,2 - - 0 0 - - N 1036,7 10 0,0
13.09.2019 21:00:00 12,0 7,5 - - 9 5 - - W 1036,3 10 0,0
13.09.2019 20:00:00 13,5 7,4 - - 11 6 - - W 1036,2 10 0,0
13.09.2019 19:00:00 15,7 7,4 - - 9 5 - - W 1035,6 29 0,0
13.09.2019 18:00:00 17,4 6,4 - - 13 7 - - W 1035,3 30 0,0
13.09.2019 17:00:00 18,0 6,2 - - 11 6 - - W 1035,3 10 0,0
13.09.2019 16:00:00 18,0 6,1 - - 11 6 - - NW 1035,6 10 0,0
13.09.2019 15:00:00 18,5 5,7 - - 13 7 - - NW 1035,6 35 0,0
13.09.2019 14:00:00 18,0 6,0 - - 11 6 - - WNW 1035,8 10 0,0
13.09.2019 13:00:00 17,4 5,6 - - 9 5 - - WNW 1035,7 10 0,0
13.09.2019 12:00:00 17,0 7,7 - - 15 8 - - NW 1035,4 10 0,0
13.09.2019 11:00:00 15,6 7,7 - - 11 6 - - NNW 1035,3 10 0,0
13.09.2019 10:00:00 13,6 7,9 14,9 14,9 5 3 - - WSW 1035,3 10 0,0
13.09.2019 09:00:00 10,3 7,1 - - 4 2 - - SSW 1034,8 10 0,0
13.09.2019 08:00:00 7,8 5,9 - - 5 3 - - SSE 1033,9 10 0,0
13.09.2019 07:00:00 5,2 3,3 - - 9 5 - - WNW 1033,4 10 0,0
13.09.2019 06:00:00 6,5 5,2 - - 4 2 - - W 1032,4 29 0,0
13.09.2019 05:00:00 7,6 6,0 - - 5 3 - - W 1031,7 10 0,0
13.09.2019 04:00:00 8,1 6,3 - - 11 6 - - W 1031,3 10 0,0
13.09.2019 03:00:00 8,5 6,3 - - 9 5 - - WNW 1030,7 30 0,0
13.09.2019 02:00:00 10,3 7,3 - - 11 6 - - NW 1030,0 10 0,0
13.09.2019 01:00:00 10,7 6,9 - - 13 7 - - WNW 1028,8 30 0,0
13.09.2019 00:00:00 12,3 7,8 - - 16 9 - - WNW 1028,2 10 0,0
12.09.2019 23:00:00 13,6 10,2 - - 18 10 - - NW 1027,3 40 0,0
12.09.2019 22:00:00 15,3 12,0 - - 18 10 - - WNW 1025,8 40 0,0
12.09.2019 21:00:00 16,5 12,9 - - 16 9 - - NW 1024,8 10 0,0
12.09.2019 20:00:00 17,7 15,4 - - 11 6 - - W 1023,2 10 0,0
12.09.2019 19:00:00 17,4 16,0 - - 18 10 - - SW 1022,4 10 0,0
12.09.2019 18:00:00 18,5 14,7 - - 26 14 - - WSW 1022,1 10 0,0
12.09.2019 17:00:00 18,9 13,8 - - 29 16 52 28 WSW 1021,7 10 0,0
12.09.2019 16:00:00 21,3 14,6 - - 37 20 57 31 W 1021,1 10 0,0
12.09.2019 15:00:00 21,5 14,7 - - 37 20 61 33 WSW 1020,5 10 0,0
12.09.2019 14:00:00 21,4 14,7 - - 31 17 52 28 SW 1020,6 10 0,0
12.09.2019 13:00:00 20,3 14,5 - - 26 14 - - SW 1021,3 10 0,0
12.09.2019 12:00:00 18,1 13,5 - - 21 11 - - S 1021,7 10 0,0
12.09.2019 11:00:00 16,6 12,4 - - 16 9 - - S 1022,2 10 0,0
12.09.2019 10:00:00 15,8 11,5 14,9 14,9 15 8 - - S 1022,4 10 0,0
12.09.2019 09:00:00 15,3 11,3 - - 18 10 - - S 1022,1 10 0,0
12.09.2019 08:00:00 14,6 11,3 - - 11 6 - - SE 1022,1 10 0,0
12.09.2019 07:00:00 14,4 11,1 - - 8 4 - - SSW 1021,7 27 0,0
12.09.2019 06:00:00 14,6 11,1 - - 11 6 - - SW 1021,3 28 0,0
12.09.2019 05:00:00 14,7 11,1 - - 15 8 - - SW 1020,8 26 0,0
12.09.2019 04:00:00 13,6 11,1 - - 11 6 - - SE 1021,0 10 0,0
12.09.2019 03:00:00 13,6 11,1 - - 8 4 - - S 1021,0 10 0,0
12.09.2019 02:00:00 13,8 10,9 - - 11 6 - - SSW 1020,8 24 0,0
12.09.2019 01:00:00 13,6 10,5 - - 9 5 - - SSE 1020,7 25 0,0
12.09.2019 00:00:00 14,3 10,4 - - 11 6 - - S 1020,3 10 0,0
11.09.2019 23:00:00 13,9 10,1 - - 13 7 - - SSW 1020,2 26 0,0
11.09.2019 22:00:00 15,1 10,0 - - 8 4 - - WSW 1020,0 10 0,0
11.09.2019 21:00:00 14,9 10,1 - - 15 8 - - W 1019,0 10 0,0
11.09.2019 20:00:00 15,6 10,2 - - 24 13 - - W 1018,4 29 0,0
11.09.2019 19:00:00 16,2 9,7 - - 21 11 - - W 1018,4 29 0,0
11.09.2019 18:00:00 17,8 9,7 - - 18 10 - - W 1017,6 30 0,0
11.09.2019 17:00:00 17,9 8,8 - - 16 9 - - W 1017,0 10 0,0
11.09.2019 16:00:00 18,7 9,4 - - 26 14 46 25 W 1016,4 10 0,0
11.09.2019 15:00:00 19,4 10,0 - - 31 17 - - W 1015,5 10 0,0
11.09.2019 14:00:00 17,7 9,3 - - 26 14 - - W 1014,8 10 0,0
11.09.2019 13:00:00 18,7 10,5 - - 24 13 - - W 1014,1 10 0,0
11.09.2019 12:00:00 17,9 10,5 - - 26 14 52 28 W 1013,3 10 0,0
11.09.2019 11:00:00 17,8 12,3 - - 21 11 - - W 1012,6 10 0,2
11.09.2019 10:00:00 17,6 15,6 14,7 15,0 21 11 - - W 1011,2 5 0,0
11.09.2019 09:00:00 17,4 15,0 - - 21 11 - - SW 1010,6 10 0,0
11.09.2019 08:00:00 16,3 13,6 - - 21 11 - - SSW 1010,4 10 0,0
11.09.2019 07:00:00 15,3 13,2 - - 26 14 - - SW 1009,8 30 0,0
11.09.2019 06:00:00 14,3 12,6 - - 15 8 - - S 1010,1 26 0,0
11.09.2019 05:00:00 13,6 12,1 - - 11 6 - - SSW 1010,7 29 0,0
11.09.2019 04:00:00 12,4 11,2 - - 13 7 - - SSE 1012,4 27 0,0
11.09.2019 03:00:00 12,0 10,6 - - 16 9 - - S 1013,0 28 0,4
11.09.2019 02:00:00 11,4 10,0 - - 16 9 - - S 1013,9 12 1,4
11.09.2019 01:00:00 11,8 9,7 - - 16 9 - - SSW 1014,6 10 0,2
11.09.2019 00:00:00 11,9 10,3 - - 9 5 - - S 1015,2 22 0,2
10.09.2019 23:00:00 12,3 9,4 - - 11 6 - - SSW 1016,2 18 0,4
10.09.2019 22:00:00 12,8 9,2 - - 11 6 - - SW 1016,9 16 0,0
10.09.2019 21:00:00 13,5 8,0 - - 9 5 - - SW 1017,0 10 0,0
10.09.2019 20:00:00 13,0 7,4 - - 13 7 - - W 1017,6 28 0,0
10.09.2019 19:00:00 14,5 7,3 - - 15 8 - - W 1017,9 10 0,0
10.09.2019 18:00:00 15,3 7,4 - - 16 9 - - W 1017,8 10 0,0
10.09.2019 17:00:00 16,7 7,7 - - 22 12 - - W 1017,8 10 0,0
10.09.2019 16:00:00 16,9 8,2 - - 21 11 - - WSW 1017,7 10 0,0
10.09.2019 15:00:00 17,6 6,2 - - 18 10 - - W - 10 0,0
10.09.2019 14:00:00 17,1 9,3 - - 13 7 - - W 1018,0 30 0,0
10.09.2019 13:00:00 - - - - 11 6 - - W - 10 0,0
10.09.2019 12:00:00 15,4 11,4 - - 9 5 - - WNW 1018,0 10 0,0
10.09.2019 11:00:00 14,8 12,0 - - 9 5 - - NNW 1018,3 10 0,0
10.09.2019 10:00:00 13,4 11,2 14,7 15,0 8 4 - - NW 1018,3 10 0,0
10.09.2019 09:00:00 10,7 10,5 - - 9 5 - - NW 1018,0 10 0,0
10.09.2019 08:00:00 7,7 7,5 - - 8 4 - - SW 1017,4 9 0,0
10.09.2019 07:00:00 7,1 6,9 - - 5 3 - - WNW 1017,0 6 0,0
10.09.2019 06:00:00 6,2 5,9 - - 11 6 - - WNW 1016,6 3,8 0,0
10.09.2019 05:00:00 7,4 7,0 - - 5 3 - - WNW 1015,9 3,3 0,0
10.09.2019 04:00:00 8,0 7,6 - - 9 5 - - WNW 1015,8 4,6 0,0
10.09.2019 03:00:00 9,0 8,6 - - 9 5 - - NW 1015,6 5 0,0
10.09.2019 02:00:00 10,8 10,5 - - 11 6 - - NW 1015,2 3,4 0,0
10.09.2019 01:00:00 10,9 10,6 - - 9 5 - - NW 1014,8 3,3 0,0
10.09.2019 00:00:00 11,3 10,8 - - 8 4 - - NW 1014,5 3,9 0,0
09.09.2019 23:00:00 12,3 11,9 - - 9 5 - - NW 1014,3 6 0,0
09.09.2019 22:00:00 12,7 12,3 - - 4 2 - - S 1013,6 2,7 0,0
09.09.2019 21:00:00 12,6 12,2 - - 4 2 - - ESE 1013,0 4,0 0,0
09.09.2019 20:00:00 12,7 12,2 - - 5 3 - - SE 1012,3 4,5 0,0
09.09.2019 19:00:00 12,9 12,4 - - 9 5 - - SE 1011,8 6 0,2
09.09.2019 18:00:00 12,6 12,2 - - 9 5 - - SSE 1011,2 4,4 0,6
09.09.2019 17:00:00 12,6 12,2 - - 13 7 - - ESE 1010,6 1,6 0,8
09.09.2019 16:00:00 12,5 12,0 - - 15 8 - - ESE 1010,4 2,0 1,0
09.09.2019 15:00:00 12,2 11,3 - - 15 8 - - ESE 1010,4 4,5 0,4
09.09.2019 14:00:00 12,2 11,1 - - 18 10 - - SE 1010,3 4,8 0,2
09.09.2019 13:00:00 12,3 10,8 - - 18 10 - - ESE 1010,6 5 0,4
09.09.2019 12:00:00 12,3 10,3 - - 16 9 - - ESE 1010,8 10 0,4
09.09.2019 11:00:00 12,2 9,4 - - 13 7 - - SE 1011,1 10 0,0
09.09.2019 10:00:00 11,7 8,3 14,7 15,2 11 6 - - ESE 1011,3 10 0,0
09.09.2019 09:00:00 11,3 7,9 - - 13 7 - - SE 1011,4 10 0,0

tt = temperature
td = dewpoint
tt -20cm = temperature -20cm
tt -100cm = temperature -100cm
ff = wind speed
fx = gusts
dd = wind direction
ppp = reduced air pressure
vv = visibility
rr = precipitation

Next stations